User: anonymous   Login
Location: Moonridge Observatory
(39.2268°N, 77.7914°W)
Time: 18:03:21
(UTC-04:00)
Language:

CZ-2C R/B - Orbit

View from above orbital plane
View from above orbital plane
View from above satellite
View from above satellite

Ground track
Ground track

The orbit data is extracted from the following two-line orbital elements,

1 28480U 04046B   15210.35811420  .00000023  00000-0  23729-4 0  9991
2 28480 098.1461 341.3036 0143511 098.0927 315.7308 14.25519918556090
Epoch (UTC): 29 July 2015 08:35:41
Eccentricity: 0.0143511
inclination: 98.1461°
perigee height: 703 km
apogee height: 910 km
right ascension of ascending node: 341.3036°
argument of perigee: 98.0927°
revolutions per day: 14.25519918
mean anomaly at epoch: 315.7308°
orbit number at epoch: 55609

The dashed part of the orbit path shows where the satellite is in the earth's shadow,  

DLR